Flag for Poland Weather past 2 weeks in Gorzów Wielkopolski, Poland

Now
39 °F

Overcast.


Feels Like: 39 °F
Forecast: 35 / 43 °F
Wind: 2 mph from Southwest

Location: Gorzow Wlkp

Current Time: Mar 2, 2015 at 1:15:06 AM

Latest Report: Mar 2, 2015 at 12:00 AM


Visibility: 6 mi

Pressure: 29.59 "Hg

Humidity: 93%

Dew point: 37 °F

Location of Gorzów WielkopolskiLocation

Historic Weather in Gorzów Wielkopolski — Graph

°F

Gorzów Wielkopolski temperature yesterday

Maximum temperature yesterday: 43 °F (at 11:00 AM)
Minimum temperature yesterday: 27 °F (at 3:00 AM)
Average temperature yesterday: 36 °F

Past Weeks' High & Low Weather Summary

 TemperatureHumidityPressure
High50 °F (Feb 21, 2:00 PM)98% (Feb 28, 5:00 AM)30.71 "Hg (Feb 28, 5:00 AM)
Low25 °F (Feb 20, 7:00 AM)44% (Feb 21, 11:00 AM)29.38 "Hg (Feb 21, 3:00 PM)
Average36 °F79%30.03 "Hg
* Reported Feb 14 11:00 PM — Mar 1 11:00 PM, Gorzów Wielkopolski, Weather by CustomWeather, © 2015

Note: Actual official high and low records may vary slightly from our data, if they occured in-between our weather recording intervals... More about our weather records

Advertising

Gorzów Wielkopolski weather history for previous 24 hours

 ConditionsComfort  
Time TempWeatherWind HumidityBarometerVisibility
11:00 PM
Sun, Mar 1
40 °FOvercast.2 mph92%29.60 "Hg6 mi
10:00 PM39 °FFog.2 mph94%29.59 "Hg3 mi
9:00 PM40 °FOvercast.2 mph95%29.60 "Hg3 mi
8:00 PM39 °FFog.2 mph95%29.60 "Hg3 mi
7:00 PM39 °FFog.2 mph96%29.61 "Hg3 mi
6:00 PM39 °FLow clouds.2 mph96%29.62 "Hg3 mi
5:00 PM39 °FRain. Low clouds.3 mph96%29.61 "Hg1 mi
4:00 PM39 °FRain. Low clouds.3 mph94%29.62 "Hg2 mi
3:00 PM39 °FRain. Overcast.5 mph89%29.63 "Hg5 mi
2:00 PM41 °FLight rain. Overcast.3 mph77%29.65 "Hg6 mi
1:00 PM41 °FLight rain. Overcast.6 mph71%29.67 "Hg7 mi
12:00 PM43 °FOvercast.6 mph57%29.68 "Hg9 mi
11:00 AM43 °FOvercast.6 mph57%29.71 "Hg9 mi
10:00 AM40 °FOvercast.7 mph66%29.74 "Hg6 mi
9:00 AM36 °FFog.5 mph83%29.78 "Hg5 mi
8:00 AM32 °FFog.3 mph91%29.81 "Hg4 mi
7:00 AM29 °FFog.2 mph93%29.83 "Hg5 mi
6:00 AM29 °FPassing clouds.2 mph93%29.86 "Hg6 mi
5:00 AM29 °FClear.2 mph93%29.89 "Hg9 mi
3:00 AM27 °FPassing clouds.1 mph91%29.94 "Hg9 mi
2:00 AM29 °FClear.1 mph87%29.97 "Hg12 mi
1:00 AM30 °FClear.2 mph84%29.99 "Hg12 mi
Weather by CustomWeather, © 2015

See weather overviewHow to use our weather pages